MST,Max TemperatureF,Mean TemperatureF,Min TemperatureF,Max Dew PointF,MeanDew PointF,Min DewpointF,Max Humidity, Mean Humidity, Min Humidity, Max Sea Level PressureIn, Mean Sea Level PressureIn, Min Sea Level PressureIn, Max VisibilityMiles, Mean VisibilityMiles, Min VisibilityMiles, Max Wind SpeedMPH, Mean Wind SpeedMPH, Max Gust SpeedMPH,PrecipitationIn, CloudCover, Events, WindDirDegrees
2012-11-1,80,59,37,18,14,8,37,23,8,30.06,29.96,29.89,10,10,10,10,4,14,0.00,0,,279
2012-11-2,79,59,38,30,21,13,40,27,13,29.97,29.90,29.83,10,10,10,14,4,22,0.00,0,,277
2012-11-3,77,58,42,31,28,22,53,33,18,30.04,29.97,29.89,10,10,10,8,4,,0.00,0,,269
2012-11-4,77,57,39,27,22,18,51,29,14,30.13,30.07,30.03,10,10,10,12,4,,0.00,0,,165
2012-11-5,77,57,37,22,16,13,43,23,9,30.17,30.09,30.03,10,10,10,13,4,,0.00,0,,296
2012-11-6,81,60,38,21,17,12,40,25,10,30.17,30.08,30.02,10,10,10,8,3,13,0.00,0,,285
2012-11-7,81,60,38,25,19,13,37,24,11,30.12,30.01,29.92,10,10,9,12,4,17,0.00,0,,288
2012-11-8,80,62,44,41,25,18,43,29,15,29.96,29.88,29.81,10,10,10,22,6,29,T,0,,267
2012-11-9,71,59,47,46,40,34,71,51,30,29.94,29.81,29.72,10,10,10,21,8,28,T,2,Rain,240
2012-11-10,62,53,44,42,33,19,71,47,37,29.88,29.74,29.68,10,10,4,28,12,40,0.00,2,,261
2012-11-11,52,41,30,24,12,0,59,32,12,30.31,30.12,29.90,10,10,10,20,13,26,0.00,1,,309
2012-11-12,55,40,25,10,3,-5,43,23,9,30.44,30.31,30.22,10,10,10,17,9,25,0.00,0,,78
2012-11-13,63,45,27,6,0,-5,23,16,9,30.27,30.20,30.11,10,10,10,16,6,20,0.00,0,,87
2012-11-14,66,46,25,12,7,1,37,22,10,30.33,30.23,30.10,10,10,10,12,6,,0.00,0,,16
2012-11-15,70,48,28,13,10,5,39,25,10,30.19,30.13,30.09,10,10,10,12,5,15,0.00,0,,50
2012-11-16,67,56,43,19,14,9,23,19,15,30.19,30.12,30.06,10,10,10,15,7,20,0.00,1,,78
2012-11-17,66,52,39,28,23,14,38,30,22,30.16,30.09,30.04,10,10,10,14,4,18,T,2,,356
2012-11-18,64,53,42,51,43,28,96,68,39,30.14,30.07,30.02,10,10,9,13,6,17,0.05,3,Rain,239
2012-11-19,69,52,35,44,36,30,100,64,27,30.22,30.17,30.12,10,10,10,10,2,13,0.00,0,,288
2012-11-20,70,52,32,32,29,24,75,49,23,30.25,30.15,30.05,10,10,10,14,6,20,0.00,0,,83
2012-11-21,71,60,48,38,32,23,63,37,27,30.12,30.02,29.94,10,10,10,8,5,,0.00,2,,81
2012-11-22,77,58,39,39,29,17,77,43,15,30.12,30.04,29.96,10,10,10,15,5,22,0.00,0,,291
2012-11-23,63,51,39,26,21,16,53,32,21,30.35,30.26,30.12,10,10,10,22,9,26,0.00,0,,80
2012-11-24,65,47,29,28,21,13,49,35,20,30.34,30.19,30.04,10,10,10,13,5,14,0.00,0,,26
2012-11-25,74,52,30,31,22,16,59,38,17,30.06,29.95,29.84,10,10,10,20,4,28,0.00,0,,273
2012-11-26,72,53,34,23,16,10,47,30,12,30.14,30.02,29.91,10,10,10,20,5,25,0.00,0,,266
2012-11-27,65,50,34,25,22,17,52,37,22,30.33,30.23,30.13,10,10,10,14,7,16,0.00,0,,70
2012-11-28,69,52,34,36,28,19,58,43,28,30.26,30.17,30.08,10,10,10,14,5,17,0.00,0,,24
2012-11-29,72,53,33,33,25,20,70,43,15,30.16,30.09,30.02,10,10,10,18,8,25,0.00,0,,249
2012-11-30,72,54,36,35,24,19,54,36,17,30.15,30.06,29.98,10,10,10,15,7,20,0.00,0,,244